Flag Weather past 2 weeks in Finse, Norway

Now
29 °F

Chilly.


Feels Like: 26 °F
Forecast: 22 / 33 °F
Wind: 3 mph from West

Location: Finsevatn

Current Time: Oct 30, 2014 at 3:43:20 PM

Latest Report: Oct 30, 2014 at 3:00 PM


Visibility: N/A

Pressure: 30.21 "Hg

Humidity: 80%

Dew point: 24 °F

Location of FinseLocation

Historic Weather in Finse — Graph

°F

Finse temperature yesterday

Maximum temperature yesterday: 34 °F (at 12:00 AM)
Minimum temperature yesterday: 29 °F (at 7:00 PM)
Average temperature yesterday: 31 °F

Past Weeks' High & Low Weather Summary

 TemperatureHumidityPressure
High47 °F (Oct 28, 12:00 PM)96% (Oct 16, 11:00 PM)30.22 "Hg (Oct 16, 11:00 PM)
Low26 °F (Oct 16, 9:00 PM)73% (Oct 19, 11:00 AM)29.26 "Hg (Oct 19, 9:00 PM)
Average36 °F88%29.70 "Hg
* Reported Oct 15 3:00 PM — Oct 30 2:00 PM, Finse, Weather by CustomWeather, © 2014

Note: Actual official high and low records may vary slightly from our data, if they occured in-between our weather recording intervals... More about our weather records

Advertising

Finse weather history for previous 24 hours

 ConditionsComfort  
Time TempWeatherWind HumidityBarometerVisibility
2:00 PM
Oct 30
29 °FChilly.3 mph82%30.21 "HgN/A
1:00 PM29 °FChilly.5 mph86%30.22 "HgN/A
12:00 PM29 °FChilly.6 mph84%30.21 "HgN/A
11:00 AM29 °FChilly.6 mph83%30.21 "HgN/A
10:00 AM29 °FChilly.5 mph85%30.20 "HgN/A
9:00 AM29 °FChilly.6 mph87%30.19 "HgN/A
8:00 AM29 °FChilly.7 mph87%30.18 "HgN/A
7:00 AM29 °FChilly.8 mph90%30.16 "HgN/A
6:00 AM29 °FChilly.9 mph87%30.14 "HgN/A
5:00 AM29 °FChilly.10 mph90%30.12 "HgN/A
3:00 AM29 °FChilly.10 mph87%30.11 "HgN/A
2:00 AM29 °FChilly.14 mph90%30.08 "HgN/A
1:00 AM29 °FChilly.14 mph92%30.07 "HgN/A
12:00 AM30 °FChilly.13 mph92%30.05 "HgN/A
11:00 PM
Oct 29
31 °FChilly.12 mph91%30.03 "HgN/A
10:00 PM30 °FChilly.9 mph91%30.04 "HgN/A
9:00 PM30 °FChilly.10 mph93%30.03 "HgN/A
8:00 PM30 °FChilly.12 mph90%30.01 "HgN/A
7:00 PM29 °FChilly.9 mph88%30.00 "HgN/A
6:00 PM30 °FChilly.10 mph92%29.98 "HgN/A
5:00 PM30 °FChilly.9 mph93%29.94 "HgN/A
4:00 PM30 °FChilly.9 mph93%29.93 "HgN/A
3:00 PM31 °FChilly.10 mph90%29.88 "HgN/A
Weather by CustomWeather, © 2014

See weather overviewHow to use our weather pages